[[{"header":{"parameterUnit":"m.s-1","parameterCategory":1,"la1":30.2991,"la2":30.254,"lo1":-89.0895,"lo2":-89.0444,"dy":0.0017,"dx":0.0017,"nx":28,"ny":28,"refTime":"2025-04-01T21:00:00:Z","depth":0,"parameterNumber":2,"parameterNumberName":"U-component_of_WINDS"},"data":[0,0,0,0,0,0,0,0,0,0,0,0,0,0,0,0,0,0,0,0,0,0,0,0,0,0,0,0,0,0,0,0,0,0,0,0,0,0,0,0,0,0,0,0,0,0,0,0,0,0,0,0,0,0,0,0,0,0,-4.1754,-4.1755,0,-4.1871,-4.1872,-4.1874,-4.1895,-4.1894,-4.1893,-4.1892,-4.2012,-4.2016,-4.202,0,0,0,0,0,0,0,0,0,0,0,0,0,-4.1549,-4.1552,-4.1754,-4.1755,-4.1756,-4.1871,-4.1872,-4.1874,-4.1895,-4.1894,-4.1893,-4.1892,-4.2011,-4.2015,-4.202,0,0,0,0,0,0,0,0,0,0,0,0,0,-4.1649,-4.1553,-4.1753,-4.1781,-4.1784,-4.187,-4.1872,-4.1874,-4.1895,-4.1894,-4.1892,-4.1891,-4.2009,-4.2015,-4.2021,-4.2088,0,0,-4.204,-4.2042,0,0,0,0,0,0,0,0,-4.1643,-4.1656,-4.1775,-4.1779,-4.1783,-4.1867,-4.1844,-4.1946,-4.1896,-4.1853,-4.1892,-4.189,-4.1965,-4.1974,-4.2,-4.2093,-4.2098,-4.204,-4.2044,-4.2047,-4.2048,0,0,0,0,0,0,0,-4.1636,-4.1651,-4.18,-4.1777,-4.1782,-4.1787,-4.18,-4.1863,-4.1916,-4.1857,-4.1859,-4.1872,-4.1967,-4.1994,-4.2003,-4.21,-4.204,-4.2045,-4.2049,-4.2052,-4.2255,-4.2256,0,0,0,0,0,0,-4.1624,-4.1645,-4.1796,-4.1803,-4.1708,-4.1792,-4.1806,-4.1841,-4.1915,-4.1925,-4.1873,-4.1873,-4.1984,-4.1995,-4.2007,-4.2089,-4.2047,-4.2052,-4.2056,-4.2253,-4.2255,-4.2257,0,0,0,0,0,0,-4.162,-4.1637,-4.1792,-4.1725,-4.1745,-4.1797,-4.1836,-4.1844,-4.1871,-4.1927,-4.1937,-4.1891,-4.1983,-4.1998,-4.2067,-4.2094,-4.2055,-4.2061,-4.2251,-4.2253,-4.2256,-4.2254,0,0,0,0,0,0,-4.1614,-4.1636,-4.1661,-4.1725,-4.1749,-4.185,-4.1838,-4.1848,-4.1882,-4.1882,-4.1947,-4.1956,-4.1983,-4.2058,-4.2073,-4.2101,-4.2065,-4.2249,-4.2252,-4.2255,-4.2252,-4.2257,-4.226,0,0,0,0,0,-4.1606,-4.1656,-4.1662,-4.1681,-4.1782,-4.1851,-4.1864,-4.1895,-4.1884,-4.191,-4.1946,-4.1954,-4.2089,-4.2065,-4.2082,-4.2112,-4.2247,-4.2251,-4.2255,-4.225,-4.2256,-4.226,0,0,0,0,0,0,-4.1594,-4.1665,-4.1673,-4.1745,-4.1792,-4.1855,-4.1888,-4.1899,-4.195,-4.1948,-4.1984,-4.1998,-4.2065,-4.2096,-4.2069,-4.2181,-4.2167,-4.2175,-4.2158,-4.2163,-4.2167,-4.2158,-4.207,0,0,0,0,0,-4.1599,-4.165,-4.171,-4.1768,-4.1791,-4.1836,-4.1867,-4.1887,-4.1937,-4.1956,-4.1998,-4.2046,-4.2099,-4.2133,-4.2186,-4.2258,-4.2272,-4.2287,-4.2291,-4.2294,-4.23,-4.234,-4.2347,-4.2269,-4.2269,-4.2269,0,0,-4.1611,-4.1657,-4.1686,-4.1766,-4.1805,-4.1856,-4.1852,-4.1907,-4.1945,-4.1965,-4.2032,-4.2064,-4.2121,-4.2191,-4.2225,-4.2219,-4.2325,-4.2299,-4.2301,-4.2305,-4.2344,-4.2352,-4.2358,-4.2272,-4.2272,-4.2271,0,0,-4.1659,-4.1699,-4.1751,-4.179,-4.1849,-4.1878,-4.1891,-4.1953,-4.1975,-4.2043,-4.2059,-4.2106,-4.2197,-4.2236,-4.2268,-4.2332,-4.2341,-4.2348,-4.2368,-4.2407,-4.2413,-4.2418,-4.244,-4.2448,-4.2354,-4.2354,-4.2354,0,-4.1666,-4.1744,-4.1776,-4.183,-4.1865,-4.1886,-4.1939,-4.1975,-4.2048,-4.2071,-4.2065,-4.218,-4.2219,-4.2299,-4.2315,-4.234,-4.2355,-4.234,-4.2409,-4.2415,-4.2421,-4.2442,-4.245,-4.2354,-4.2354,-4.2354,-4.2354,0,-4.175,-4.1803,-4.1839,-4.1908,-4.1947,-4.2,-4.2041,-4.2077,-4.2093,-4.2124,-4.2193,-4.2242,-4.2304,-4.2325,-4.2342,-4.2408,-4.2402,-4.2402,-4.2388,-4.2428,-4.2448,-4.2457,-4.2355,-4.2355,-4.2355,-4.2355,0,0,-4.179,-4.1878,-4.189,-4.1922,-4.1989,-4.2031,-4.2086,-4.2147,-4.2176,-4.2226,-4.2272,-4.235,-4.235,-4.2386,-4.2408,-4.2442,-4.2489,-4.2438,-4.244,-4.2444,-4.2563,-4.2561,-4.257,-4.2496,-4.2498,-4.2499,-4.2558,0,-4.1845,-4.1942,-4.1973,-4.2055,-4.2104,-4.2126,-4.2173,-4.222,-4.225,-4.2297,-4.2331,-4.2385,-4.2382,-4.2404,-4.2439,-4.2476,-4.2513,-4.2472,-4.2538,-4.254,-4.2521,-4.2581,-4.258,-4.2633,-4.2566,-4.2568,-4.2569,0,-4.1921,-4.1972,-4.2058,-4.2118,-4.214,-4.2182,-4.2241,-4.2286,-4.2339,-4.2359,-4.24,-4.2419,-4.2477,-4.2462,-4.2542,-4.2514,-4.2543,-4.2566,-4.2568,-4.2574,-4.2555,-4.2587,-4.2651,-4.2658,-4.2582,-4.2581,-4.258,0,-4.194,-4.2031,-4.2094,-4.212,-4.2193,-4.2222,-4.2254,-4.2306,-4.234,-4.2392,-4.2414,-4.2472,-4.2503,-4.2548,-4.2582,-4.2568,-4.2659,-4.2647,-4.2677,-4.2676,-4.2693,-4.2691,-4.276,-4.2715,-4.2715,-4.2715,-4.2715,0,-4.1997,-4.2048,-4.2103,-4.2142,-4.22,-4.2236,-4.2293,-4.2326,-4.2372,-4.2417,-4.2441,-4.2483,-4.2526,-4.2575,-4.2602,-4.2664,-4.2678,-4.2696,-4.2702,-4.2692,-4.269,-4.2711,-4.2707,-4.2717,-4.2716,-4.2716,-4.2716,0,-4.2027,-4.2066,-4.2136,-4.2199,-4.2217,-4.2257,-4.2311,-4.2349,-4.2381,-4.2439,-4.2454,-4.2504,-4.2562,-4.2602,-4.2676,-4.2695,-4.2761,-4.2768,-4.2743,-4.2745,-4.2772,-4.2768,-4.2856,-4.2869,-4.2816,-4.2816,-4.2817,0,-4.2059,-4.2099,-4.2167,-4.2199,-4.2231,-4.2282,-4.2318,-4.2355,-4.2391,-4.2455,-4.2486,-4.2545,-4.2595,-4.2686,-4.2729,-4.2786,-4.2794,-4.282,-4.2802,-4.2791,-4.2792,-4.2789,-4.2792,-4.2822,-4.2823,-4.2823,-4.2823,0,-4.2112,-4.213,-4.218,-4.2237,-4.2279,-4.2326,-4.2373,-4.2398,-4.2444,-4.2484,-4.2543,-4.2581,-4.2657,-4.2716,-4.2777,-4.281,-4.2824,-4.2829,-4.2839,-4.2828,-4.2812,-4.282,-4.2748,-4.2826,-4.2826,-4.2826,-4.2826,-4.2826,-4.2144,-4.218,-4.2233,-4.2289,-4.2328,-4.2372,-4.2411,-4.2448,-4.2498,-4.2562,-4.2582,-4.2643,-4.2696,-4.278,-4.2814,-4.2863,-4.286,-4.2875,-4.2878,-4.288,-4.288,-4.2806,-4.2875,-4.2874,-4.2874,-4.2874,-4.2874,0,-4.2197,-4.2232,-4.2283,-4.2348,-4.2391,-4.2402,-4.2455,-4.249,-4.2544,-4.2592,-4.264,-4.2708,-4.2765,-4.2814,-4.2873,-4.2903,-4.2911,-4.2917,-4.2914,-4.2921,-4.2879,-4.2864,-4.2909,-4.2909,-4.2909,-4.2909,-4.2909,-4.2909,-4.2229,-4.2291,-4.2315,-4.2397,-4.2432,-4.2492,-4.2521,-4.2562,-4.26,-4.2675,-4.2722,-4.2754,-4.2802,-4.2865,-4.2918,-4.2931,-4.2951,-4.2955,-4.2969,-4.2928,-4.2924,-4.292,-4.2906,-4.2959,-4.2959,-4.3007,-4.3007,-4.3007]},{"header":{"parameterUnit":"m.s-1","parameterCategory":1,"la1":30.2991,"la2":30.254,"lo1":-89.0895,"lo2":-89.0444,"dy":0.0017,"dx":0.0017,"nx":28,"ny":28,"refTime":"2025-04-01T21:00:00:Z","depth":0,"parameterNumber":3,"parameterNumberName":"V-component_of_WINDS"},"data":[0,0,0,0,0,0,0,0,0,0,0,0,0,0,0,0,0,0,0,0,0,0,0,0,0,0,0,0,0,0,0,0,0,0,0,0,0,0,0,0,0,0,0,0,0,0,0,0,0,0,0,0,0,0,0,0,0,0,5.8672,5.8673,0,5.876,5.8761,5.8762,5.8752,5.875,5.8749,5.8748,5.8836,5.8839,5.8843,0,0,0,0,0,0,0,0,0,0,0,0,0,5.8492,5.8496,5.8672,5.8673,5.8674,5.876,5.8761,5.8763,5.8752,5.875,5.8749,5.8747,5.8834,5.8839,5.8843,0,0,0,0,0,0,0,0,0,0,0,0,0,5.8574,5.8497,5.8671,5.8679,5.8681,5.876,5.8761,5.8763,5.8752,5.875,5.8748,5.8746,5.8833,5.8838,5.8844,5.892,0,0,5.8861,5.8863,0,0,0,0,0,0,0,0,5.857,5.8581,5.8677,5.8679,5.8681,5.8743,5.873,5.8816,5.8753,5.8725,5.8748,5.8745,5.8806,5.8814,5.8835,5.8924,5.8928,5.8861,5.8864,5.8867,5.8868,0,0,0,0,0,0,0,5.8564,5.8577,5.8707,5.8678,5.868,5.8678,5.8687,5.8747,5.8776,5.8727,5.8727,5.8738,5.8807,5.883,5.8837,5.893,5.8861,5.8866,5.8869,5.8871,5.9089,5.9092,0,0,0,0,0,0,5.8557,5.8572,5.8704,5.8709,5.8619,5.8683,5.8693,5.8725,5.8776,5.8782,5.8739,5.8737,5.8821,5.8831,5.884,5.8935,5.8867,5.8872,5.8875,5.9087,5.909,5.9093,0,0,0,0,0,0,5.8553,5.8569,5.87,5.8641,5.8657,5.8688,5.8724,5.8728,5.8751,5.8785,5.879,5.8757,5.882,5.8832,5.8901,5.8938,5.8874,5.8879,5.9084,5.9088,5.9091,5.9125,0,0,0,0,0,0,5.8548,5.8567,5.8597,5.8642,5.8661,5.876,5.8726,5.8731,5.8761,5.8758,5.8803,5.8809,5.8819,5.8893,5.8907,5.8945,5.8884,5.9081,5.9086,5.909,5.9121,5.913,5.9137,0,0,0,0,0,5.8541,5.8601,5.8598,5.8614,5.8698,5.8762,5.8773,5.8785,5.8764,5.8794,5.8816,5.8807,5.8932,5.89,5.8916,5.8956,5.9079,5.9084,5.909,5.9117,5.9128,5.9137,0,0,0,0,0,0,5.8558,5.8607,5.8604,5.8681,5.8718,5.8761,5.8799,5.8796,5.8839,5.8835,5.8847,5.8857,5.8928,5.8948,5.8912,5.9034,5.9002,5.9011,5.9018,5.9028,5.9036,5.903,5.8888,0,0,0,0,0,5.8571,5.862,5.866,5.8723,5.8742,5.8767,5.8796,5.8802,5.8841,5.8856,5.8883,5.892,5.8968,5.8999,5.9045,5.9124,5.9134,5.9159,5.9167,5.9173,5.9181,5.9227,5.9239,5.9111,5.9111,5.9111,0,0,5.8598,5.8631,5.866,5.8728,5.8757,5.8808,5.878,5.8834,5.8872,5.8864,5.8932,5.8953,5.8995,5.907,5.9105,5.909,5.9219,5.9181,5.9186,5.919,5.9234,5.9246,5.9257,5.9115,5.9114,5.9114,0,0,5.8672,5.8701,5.8759,5.879,5.8835,5.8852,5.8866,5.891,5.8925,5.8993,5.8989,5.9034,5.9115,5.9147,5.9173,5.9263,5.9257,5.9277,5.9319,5.9364,5.9374,5.9383,5.9417,5.9429,5.9284,5.9284,5.9284,0,5.8699,5.8776,5.8788,5.8844,5.8875,5.8871,5.893,5.8959,5.9017,5.9038,5.9021,5.9125,5.9153,5.9237,5.9259,5.928,5.9297,5.9272,5.9372,5.9381,5.939,5.9422,5.9435,5.9287,5.9286,5.9286,5.9286,0,5.8808,5.8861,5.8902,5.896,5.8995,5.9052,5.9074,5.9107,5.9111,5.913,5.9201,5.9235,5.9289,5.9309,5.9312,5.9394,5.9384,5.9369,5.9337,5.9404,5.9435,5.9447,5.929,5.9289,5.9289,5.9288,0,0,5.8895,5.8961,5.8976,5.9004,5.9055,5.9096,5.9154,5.9208,5.9238,5.9278,5.9327,5.9397,5.9385,5.9415,5.9422,5.9461,5.9533,5.9442,5.9443,5.9459,5.9628,5.964,5.9654,5.9529,5.9532,5.9533,5.9625,0,5.8976,5.9079,5.9093,5.9184,5.9234,5.9233,5.9283,5.932,5.9339,5.9385,5.9406,5.9457,5.9435,5.9454,5.9492,5.9516,5.9567,5.9509,5.9576,5.9578,5.9567,5.967,5.9682,5.9767,5.9637,5.9639,5.964,0,5.9084,5.913,5.9226,5.9274,5.9295,5.934,5.9392,5.9435,5.9478,5.9489,5.9525,5.9528,5.9588,5.9553,5.9637,5.9598,5.9626,5.9642,5.9645,5.9653,5.9614,5.9682,5.9794,5.9807,5.9659,5.9658,5.9656,0,5.9141,5.9226,5.9296,5.9319,5.9375,5.9407,5.9432,5.9472,5.9505,5.955,5.9572,5.9623,5.9651,5.9691,5.9708,5.9681,5.9791,5.9757,5.9803,5.9803,5.9827,5.9826,5.9947,5.9843,5.9842,5.9842,5.9842,0,5.9231,5.9291,5.9322,5.9365,5.9432,5.9448,5.9514,5.9537,5.9574,5.9622,5.9623,5.9667,5.9686,5.9734,5.9748,5.9816,5.9828,5.984,5.9843,5.9841,5.984,5.986,5.9855,5.9846,5.9845,5.9844,5.9844,0,5.9306,5.9329,5.9405,5.9453,5.9467,5.9514,5.9555,5.9597,5.9616,5.9677,5.9692,5.9723,5.978,5.98,5.9868,5.9878,5.9958,5.9955,5.9944,5.9945,5.9991,5.9987,6.013,6.0151,6.0031,6.0033,6.0033,0,5.9363,5.9409,5.9462,5.9495,5.9522,5.9574,5.9608,5.9625,5.9661,5.9714,5.975,5.9807,5.9853,5.9944,5.9972,6.0025,6.0025,6.0072,6.0033,6.003,6.0028,6.0026,6.0032,6.0079,6.008,6.0081,6.0082,0,5.9462,5.9472,5.9521,5.9576,5.9617,5.966,5.9702,5.9728,5.9753,5.9792,5.9851,5.9888,5.9959,6.0016,6.007,6.0095,6.0094,6.0094,6.0108,6.0107,6.01,6.0106,5.9966,6.0091,6.009,6.0089,6.0089,6.0089,5.9531,5.9573,5.9618,5.9674,5.9708,5.9747,5.979,5.9816,5.9866,5.9926,5.9933,5.9997,6.004,6.0114,6.0142,6.0192,6.018,6.0199,6.0204,6.0209,6.0214,6.0091,6.0202,6.0202,6.0201,6.0201,6.0201,0,5.9632,5.9662,5.9713,5.9773,5.9817,5.9812,5.9859,5.9896,5.9953,5.9994,6.004,6.0109,6.0165,6.0198,6.0255,6.0289,6.0289,6.0303,6.0301,6.0308,6.0221,6.0204,6.0302,6.0302,6.0302,6.0301,6.0301,6.0301,5.969,5.9762,5.9778,5.9867,5.9895,5.9959,5.9987,6.0024,6.0057,6.0134,6.0181,6.0203,6.0242,6.0301,6.0353,6.0361,6.0382,6.0398,6.0405,6.0324,6.0313,6.0303,6.0288,6.0402,6.0402,6.0488,6.0489,6.049]}]]